Renton, WA
on Wednesday, February 6, 2013

Wednesday
Previous Day Next Day
Daily Summary
 ActualAverage (KSEA)Record (KSEA)
Temperature
Mean Temperature °F 43°F  
Max Temperature 52°F 49°F 64°F (1993)
Min Temperature 44°F 37°F 18°F (1989)
Degree Days
Heating Degree Days 17 22  
Month to date heating degree days 132  
Since 1 July heating degree days 2781  
Cooling Degree Days 0 0  
Month to date cooling degree days 0  
Year to date cooling degree days 0  
Moisture
Dew Point 40°F   
Average Humidity 79    
Maximum Humidity 89    
Minimum Humidity 56    
Precipitation
Precipitation 0.04 in 0.13 in 1.54 in (1960)
Month to date precipitation 0.80  
Year to date precipitation 6.37  
Snow
Snow 0.00 in in T in (1990)
Month to date snowfall  
Since 1 July snowfall  
Snow Depth in   
Wind
Wind Speed 6 mph   
Max Wind Speed 13 mph   
Max Gust Speed 20 mph   
Visibility 10 miles   
Events Rain   

Key: T is trace of precipitation, MM is missing value
Source: NWS Daily Summary
Time(PST)TemperatureDew PointHumidity Pressure Visibility Wind DirectionWind SpeedGust SpeedPrecipitationEvents Conditions
12:53 AM 45.0°F 39.9°F 82% 29.99 in 10.0 miles SSE 6.9 mph - N/A   Overcast
1:17 AM 44.6°F 39.2°F 81% 29.98 in 10.0 miles SSE 6.9 mph - N/A   Overcast
1:53 AM 44.1°F 41.0°F 89% 30.00 in 9.0 miles ESE 3.5 mph - 0.00 in Rain Light Rain
2:53 AM 45.0°F 39.9°F 82% 30.01 in 10.0 miles SSE 3.5 mph - 0.00 in   Overcast
3:53 AM 45.0°F 39.9°F 82% 30.02 in 10.0 miles SSE 6.9 mph - N/A   Overcast
4:53 AM 45.0°F 39.9°F 82% 30.04 in 10.0 miles SSE 6.9 mph - 0.00 in   Overcast
5:53 AM 44.1°F 39.9°F 85% 30.05 in 10.0 miles SSE 6.9 mph - 0.01 in   Overcast
6:53 AM 44.1°F 41.0°F 89% 30.06 in 10.0 miles SSE 10.4 mph - 0.00 in   Overcast
7:14 AM 44.6°F 39.2°F 81% 30.05 in 10.0 miles SSE 5.8 mph - N/A   Mostly Cloudy
7:38 AM 44.6°F 41.0°F 87% 30.06 in 10.0 miles SE 4.6 mph - N/A   Overcast
7:53 AM 44.1°F 41.0°F 89% 30.08 in 10.0 miles SE 4.6 mph - N/A   Overcast
8:53 AM 45.0°F 41.0°F 86% 30.07 in 10.0 miles ESE 3.5 mph - N/A   Overcast
9:53 AM 45.0°F 41.0°F 86% 30.06 in 10.0 miles SSE 4.6 mph - N/A   Clear
10:53 AM 48.0°F 39.0°F 71% 30.06 in 10.0 miles SSE 6.9 mph - N/A   Mostly Cloudy
11:53 AM 51.1°F 37.9°F 61% 30.03 in 10.0 miles SSE 6.9 mph - N/A   Mostly Cloudy
12:53 PM 51.1°F 36.0°F 56% 30.01 in 10.0 miles SSE 11.5 mph - N/A   Mostly Cloudy
1:53 PM 52.0°F 37.0°F 57% 29.99 in 10.0 miles SSE 12.7 mph 19.6 mph N/A   Overcast
2:53 PM 50.0°F 39.9°F 68% 29.98 in 10.0 miles SSE 8.1 mph - 0.00 in   Overcast
3:53 PM 48.0°F 39.9°F 74% 29.97 in 10.0 miles ESE 3.5 mph - 0.00 in   Overcast
4:53 PM 46.9°F 42.1°F 83% 29.97 in 4.0 miles ESE 4.6 mph - 0.02 in Rain Light Rain
5:53 PM 46.0°F 42.1°F 86% 29.93 in 10.0 miles ESE 4.6 mph - 0.00 in   Overcast
6:53 PM 46.0°F 42.1°F 86% 29.91 in 10.0 miles Calm Calm - 0.01 in Rain Light Rain
7:53 PM 46.0°F 39.9°F 79% 29.87 in 10.0 miles Calm Calm - 0.00 in   Overcast
8:53 PM 45.0°F 39.9°F 82% 29.85 in 10.0 miles Calm Calm - N/A   Overcast
9:53 PM 46.0°F 39.0°F 76% 29.83 in 10.0 miles South 3.5 mph - N/A   Overcast
10:53 PM 46.0°F 37.9°F 73% 29.81 in 10.0 miles Calm Calm - N/A   Overcast
11:53 PM 46.0°F 39.0°F 76% 29.81 in 10.0 miles SE 3.5 mph - 0.00 in   Overcast
Moon Phase
Feb. 06 Feb. 10 Feb. 17 Feb. 25 Mar. 04
Sunrise:07:27 AM (PST) Moon Rise:04:25 AM (PST)2/6
Sunset:05:18 PM (PST) Moon Set:01:34 PM (PST)2/6

Copyright © 2014 The Weather Underground, Inc.